Flag for Canada Weather past 2 weeks in Pond Inlet, Nunavut, Canada

Now
30 °F

More clouds than sun.


Feels Like: 25 °F
Forecast: 16 / 28 °F
Wind: 5 mph from Southwest

Location: Pond Inlet

Current Time: May 30, 2015 at 7:06:11 AM

Latest Report: May 30, 2015 at 6:00 AM


Visibility: 9 mi

Pressure: 29.63 "Hg

Humidity: 86%

Dew point: 27 °F

Location of Pond InletLocation

Historic Weather in Pond Inlet — Graph

°F

Pond Inlet temperature yesterday

Maximum temperature yesterday: 30 °F (at 9:00 PM)
Minimum temperature yesterday: 19 °F (at 3:00 AM)
Average temperature yesterday: 24 °F

Past Weeks' High & Low Weather Summary

 TemperatureHumidityPressure
High30 °F (May 24, 11:01 AM)100% (May 24, 5:00 AM)30.10 "Hg (May 24, 5:00 AM)
Low7 °F (May 17, 4:00 AM)53% (May 16, 5:00 PM)29.53 "Hg (May 24, 12:53 PM)
Average22 °F78%29.82 "Hg
* Reported May 15 6:00 AM — May 30 6:00 AM, Pond Inlet, Weather by CustomWeather, © 2015

Note: Actual official high and low records may vary slightly from our data, if they occured in-between our weather recording intervals... More about our weather records

Advertising

Pond Inlet weather history for previous 24 hours

 ConditionsComfort  
Time TempWeatherWind HumidityBarometerVisibility
6:00 AM
Sat, May 30
30 °FMore clouds than sun.5 mph86%29.63 "Hg9 mi
5:55 AM30 °FMore clouds than sun.5 mph86%29.63 "Hg9 mi
5:00 AM30 °FMostly cloudy.6 mph86%29.63 "Hg9 mi
4:45 AM28 °FMostly cloudy.7 mph86%29.63 "Hg9 mi
4:00 AM28 °FOvercast.7 mph86%29.63 "Hg9 mi
3:00 AM28 °FOvercast.No wind86%29.63 "Hg9 mi
2:00 AM28 °FOvercast.2 mph80%29.64 "Hg9 mi
1:03 AM28 °FOvercast.3 mph74%29.64 "Hg9 mi
12:00 AM27 °FOvercast.6 mph80%29.65 "Hg9 mi
11:00 PM
Fri, May 29
27 °FOvercast.3 mph80%29.65 "Hg9 mi
10:00 PM28 °FOvercast.7 mph80%29.66 "Hg9 mi
9:00 PM30 °FOvercast.5 mph69%29.67 "Hg9 mi
8:00 PM28 °FOvercast.3 mph80%29.67 "Hg9 mi
7:00 PM28 °FPartly sunny.3 mph74%29.68 "Hg40 mi
6:00 PM28 °FPartly sunny.3 mph80%29.68 "Hg40 mi
5:00 PM27 °FBroken clouds.2 mph80%29.69 "Hg40 mi
4:00 PM27 °FBroken clouds.5 mph80%29.69 "Hg40 mi
3:00 PM27 °FScattered clouds.5 mph80%29.70 "Hg40 mi
2:00 PM27 °FScattered clouds.6 mph80%29.70 "Hg40 mi
1:00 PM25 °FScattered clouds.5 mph80%29.71 "Hg40 mi
12:00 PM23 °FScattered clouds.5 mph86%29.73 "Hg40 mi
11:00 AM23 °FScattered clouds.6 mph80%29.73 "Hg40 mi
10:00 AM21 °FSunny.7 mph86%29.74 "Hg9 mi
9:00 AM21 °FSunny.5 mph86%29.76 "Hg9 mi
8:00 AM21 °FSunny.2 mph80%29.77 "Hg9 mi
7:00 AM21 °FSunny.8 mph80%29.78 "Hg9 mi
Weather by CustomWeather, © 2015

See weather overviewHow to use our weather pages